Home > Weather > Antsirabe > Past weeks

Flag for Madagascar Weather for the Past 2 Weeks in Antsirabe, Madagascar

Now
81 °F

Scattered clouds.


Feels Like: 83 °F
Forecast: 60 / 71 °F
Wind: 9 mph from Northwest

Location: Antananarivo / Ivato

Current Time: Feb 9, 2016 at 1:56:27 PM

Latest Report: Feb 9, 2016 at 1:00 PM


Visibility: N/A

Pressure: 29.86 "Hg (25.15 "Hg at 1507m altitude)

Humidity: 62%

Dew point: 66 °F

Location of AntsirabeLocation

Historic Weather in Antsirabe — Graph

°F

Antsirabe Temperature Yesterday

Maximum temperature yesterday: 84 °F (at 2:30 PM)
Minimum temperature yesterday: 66 °F (at 4:00 AM)
Average temperature yesterday: 73 °F

High & Low Weather Summary for the Past Weeks

 TemperatureHumidityPressure
High86 °F (Jan 26, 3:00 PM)100% (Jan 25, 6:00 PM)30.42 "Hg (Jan 25, 6:00 PM)
Low61 °F (Jan 27, 5:00 AM)35% (Jan 26, 4:00 PM)29.86 "Hg (Feb 8, 3:00 PM)
Average72 °F73%30.06 "Hg
* Reported Jan 25 12:00 Noon — Feb 9 12:30 PM, Antsirabe, Weather by CustomWeather, © 2016

Note: Actual official high and low records may vary slightly from our data, if they occured in-between our weather recording intervals... More about our weather records

Advertising

Antsirabe Weather History for the Previous 24 Hours

 ConditionsComfort  
Time TempWeatherWind HumidityBarometerVisibility
12:30 PM
Tue, Feb 9
79 °FScattered clouds.10 mph65%29.89 "HgN/A
12:00 PM77 °FScattered clouds.14 mph69%29.89 "HgN/A
11:00 AM75 °FPassing clouds.7 mph74%29.92 "HgN/A
10:30 AM73 °FScattered clouds.7 mph78%29.92 "HgN/A
10:00 AM73 °FScattered clouds.12 mph78%29.92 "HgN/A
9:30 AM72 °FScattered clouds.7 mph83%29.92 "HgN/A
9:00 AM70 °FScattered clouds.No wind88%29.95 "HgN/A
8:30 AM70 °FScattered clouds.No wind88%29.95 "HgN/A
8:00 AM68 °FScattered clouds.6 mph94%29.92 "HgN/A
7:30 AM68 °FScattered clouds.No wind94%29.92 "HgN/A
7:00 AM68 °FScattered clouds.6 mph94%29.92 "HgN/A
6:30 AM68 °FScattered clouds.2 mph94%29.95 "HgN/A
6:00 AM68 °FPartly sunny.5 mph94%29.92 "HgN/A
5:00 AM68 °FPassing clouds.No wind94%29.89 "HgN/A
4:30 AM68 °FPassing clouds.No wind94%29.86 "HgN/A
4:00 AM68 °FPassing clouds.No wind88%29.86 "HgN/A
3:30 AM68 °FPassing clouds.No wind94%29.86 "HgN/A
3:00 AM68 °FPassing clouds.No wind94%29.89 "HgN/A
2:30 AM68 °FPassing clouds.No wind94%29.89 "HgN/A
2:00 AM68 °FPassing clouds.No wind94%29.89 "HgN/A
1:30 AM68 °FPassing clouds.No wind94%29.89 "HgN/A
1:00 AM68 °FPassing clouds.No wind94%29.92 "HgN/A
12:30 AM68 °FPassing clouds.No wind94%29.95 "HgN/A
12:00 AM68 °FPassing clouds.3 mph88%29.95 "HgN/A
11:30 PM
Mon, Feb 8
68 °FPassing clouds.No wind94%29.95 "HgN/A
11:00 PM68 °FPassing clouds.2 mph88%29.98 "HgN/A
10:30 PM68 °FPassing clouds.No wind94%29.98 "HgN/A
10:00 PM70 °FThundershowers. Passing clouds.No wind88%29.98 "HgN/A
9:30 PM68 °FThundershowers. Passing clouds.No wind88%29.95 "HgN/A
9:00 PM70 °FThundershowers. Passing clouds.No wind83%29.95 "HgN/A
8:30 PM70 °FThundershowers. Passing clouds.No wind83%29.95 "HgN/A
8:00 PM72 °FThundershowers. Passing clouds.5 mph78%29.92 "HgN/A
7:30 PM72 °FThundershowers. Passing clouds.No wind78%29.95 "HgN/A
7:00 PM72 °FPassing clouds.5 mph78%29.92 "HgN/A
6:30 PM73 °FPassing clouds.8 mph74%29.92 "HgN/A
6:00 PM75 °FScattered clouds.9 mph69%29.89 "HgN/A
5:30 PM75 °FBroken clouds.14 mph69%29.89 "HgN/A
5:00 PM77 °FScattered showers. Scattered clouds.10 mph69%29.89 "HgN/A
4:30 PM79 °FScattered showers. Scattered clouds.16 mph65%29.89 "HgN/A
4:00 PM79 °FPartly sunny.16 mph61%29.86 "HgN/A
3:30 PM84 °FScattered clouds.No wind48%29.86 "HgN/A
3:00 PM84 °FScattered clouds.No wind48%29.86 "HgN/A
2:30 PM84 °FScattered clouds.No wind55%29.89 "HgN/A
2:00 PM82 °FScattered clouds.3 mph55%29.89 "HgN/A
1:30 PM82 °FPartly sunny.No wind55%29.92 "HgN/A
1:00 PM82 °FPartly sunny.No wind55%29.92 "HgN/A
Weather by CustomWeather, © 2016

See weather overviewHow to use our weather pages